Location: N�rnberg
(49.4471°N, 11.0632°E)
Time: 10:00:40
(UTC+01:00)

Envisat - Pass Details

Date: 21 February 2026
Orbit: 761 x 763 km, 98.4° (Epoch: 9 March)

Event Time Altitude Azimuth Distance (km) Brightness Sun altitude
Rises 04:22:48 0° 5° (N) 3,237 6.5 -28.3°
Reaches altitude 10° 04:25:28 10° 352° (N) 2,306 5.6 -27.9°
Enters shadow 04:26:33 15° 343° (NNW) 1,987 5.1 -27.8°
